Regional Weather Roundup
Issued by NWS Boston, MA

Current Version | Previous Version | Text Only | Print | Product List | Glossary Off
Versions: 1 2 3 4 5 6 7 8 9 10 11 12 13 14 15 16 17 18 19 20 21 22 23 24 25 26 27
000 ASUS41 KBOX 181210 RWRBOX REGIONAL WEATHER ROUNDUP NATIONAL WEATHER SERVICE TAUNTON MA 700 AM EST MON DEC 18 2017 NOTE: "FAIR" INDICATES FEW OR NO CLOUDS BELOW 12,000 FEET WITH NO SIGNIFICANT WEATHER AND/OR OBSTRUCTIONS TO VISIBILITY. MAZALL-181300- EASTERN MASSACHUSETTS CITY SKY/WX TMP DP RH WIND PRES REMARKS BOSTON CLOUDY 25 9 50 N3 30.20S 6HR MIN TEMP: 22; 6HR MAX TEMP: 25; BEVERLY CLOUDY 22 10 60 CALM 30.19S LAWRENCE CLOUDY 24 10 55 CALM 30.20S BEDFORD CLOUDY 22 11 62 CALM 30.18S BLUE HILL N/A 23 10 57 SE3 30.14S NORWOOD CLOUDY 26 15 63 CALM 30.19S MARSHFIELD CLOUDY 27 18 69 CALM 30.19S PLYMOUTH CLOUDY 26 16 65 CALM 30.19S TAUNTON CLOUDY 25 15 66 CALM 30.19S NEW BEDFORD CLOUDY 26 16 65 CALM 30.19R $$ MAZALL-181300- CAPE COD AND THE ISLANDS CITY SKY/WX TMP DP RH WIND PRES REMARKS FALMOUTH CLOUDY 27 14 59 CALM 30.19R HYANNIS CLOUDY 27 18 69 CALM 30.18R CHATHAM CLOUDY 27 19 72 CALM 30.20S PROVINCETOWN CLOUDY 27 18 69 CALM 30.20R NANTUCKET CLOUDY 28 23 81 CALM 30.18F MARTHAS VNYRD CLOUDY 27 21 78 CALM 30.19S $$ MAZALL-181300- CENTRAL AND WESTERN MASSACHUSETTS CITY SKY/WX TMP DP RH WIND PRES REMARKS WORCESTER CLOUDY 21 8 57 CALM 30.12R 6HR MIN TEMP: 18; 6HR MAX TEMP: 21; 6HR PCP: TRACE; FITCHBURG CLOUDY 24 12 60 SE3 30.18S ORANGE NOT AVBL SPRINGFIELD CLOUDY 24 14 66 CALM 30.15S WESTFIELD CLOUDY 23 14 68 N3 30.16S NORTH ADAMS CLOUDY 23 16 74 E9 30.09F WCI 13 PITTSFIELD CLOUDY 22 13 68 N3 30.06F $$ RIZALL-181300- RHODE ISLAND CITY SKY/WX TMP DP RH WIND PRES REMARKS PROVIDENCE CLOUDY 27 16 63 NE5 30.19S WCI 22 6HR MIN TEMP: 25; 6HR MAX TEMP: 27; NEWPORT CLOUDY 28 13 53 E5 30.17S WCI 23 BLOCK ISLAND CLOUDY 36 26 67 SE7 30.17S WCI 30 WESTERLY CLOUDY 29 16 58 N5 30.18S WCI 24 $$ CTZALL-181300- CONNECTICUT CITY SKY/WX TMP DP RH WIND PRES REMARKS BRADLEY INTL CLOUDY 26 13 57 CALM 30.17S 6HR MIN TEMP: 25; 6HR MAX TEMP: 26; 6HR PCP: TRACE; HARTFORD CLOUDY 29 12 49 CALM 30.17F BRIDGEPORT CLOUDY 32 19 58 NE8 30.16S WCI 25 DANBURY CLOUDY 28 21 75 E5 30.14S WCI 23 GROTON CLOUDY 30 17 58 NE6 30.17S WCI 24 NEW HAVEN CLOUDY 30 18 60 N6 30.16S WCI 24 CHESTER FLURRIES 28 12 50 CALM 30.15R MERIDEN CLOUDY 28 13 53 CALM 30.17R WILLIMANTIC CLOUDY 27 17 66 CALM 30.18S OXFORD FLURRIES 26 18 71 E3 30.12F $$ MEZ002-015-021-024-NHZ003-005-008-011-012-014-VTZ005-008-181300- NORTHERN NEW ENGLAND CITY SKY/WX TMP DP RH WIND PRES REMARKS PORTLAND ME CLOUDY 13 5 70 VRB3 30.19F 6HR MIN TEMP: 8; 6HR MAX TEMP: 13; BANGOR ME CLOUDY 5 0 79 CALM 30.19F CONCORD NH LGT SNOW 15 11 83 NE3 30.17S FOG MANCHESTER NH CLOUDY 19 11 70 S3 30.17S NASHUA NH FLURRIES 20 12 71 CALM 30.19S PORTSMOUTH NH CLOUDY 18 9 68 W3 30.17S JAFFREY NH CLOUDY 19 15 84 CALM 30.10F KEENE NH CLOUDY 16 12 84 CALM 30.15F BURLINGTON VT CLOUDY 16 8 71 CALM 30.07F MT. WASHINGTON FOG 12 12 100 W39G45 N/A VSB 1/8 WCI -12 $$ NYZ052-076-181300- EASTERN NEW YORK CITY SKY/WX TMP DP RH WIND PRES REMARKS ALBANY CLOUDY 20 12 71 CALM 30.13R 6HR MIN TEMP: 18; 6HR MAX TEMP: 20; 6HR PCP: TRACE; NEW YORK CITY CLOUDY 36 30 79 NE6 30.13F WCI 31 6HR MIN TEMP: 34; 6HR MAX TEMP: 37; 6HR PCP: 0.02; $$ ANZALL-181300- MARINE OBSERVATIONS STATION/POSITION TIME TEMP WIND PRES VSBY WAVE AIR SEA DIR/SP/G HT/PER (UTC) (F) (DEG/KT/KT) (MB) (MI) (FT/S) BOSTON BUOY 1150 30 46 150/ 2/ 4 1022.0F 1/ 5 BUZZARDS BAY 1100 32 90/ 8/ 9 1022.5F NANTUCKET SOUND 1150 32 39 110/ 4/ 6 1022.3F 1 MASS BAY-STELLWA 1104 28 46 340/ 4/ 4 1022.0F 1/ 4 ISLE OF SHOALS 1100 24 320/ 5/ 6 1022.1F S OF BLOCK IS 1143 51 N/A 2/ 6 $$ ......................KEY......................... SKY/WX - SKY CONDITION/PRESENT WEATHER TMP - TEMPERATURE IN FAHRENHEIT DWPT - DEWPOINT IN FAHRENHEIT RH - RELATIVE HUMIDITY IN PERCENT WIND - DIRECTION AND SPEED IN MPH PRES - MEAN SEA LEVEL PRESSURE IN INCHES OF HG WCI - WIND CHILL INDEX VSB - VISIBILITY IN MILES HX - HEAT INDEX TC - TEMPERATURE IN CELSIUS VRB - VARIABLE WIND DIRECTION N/A - NOT AVAILABLE

USA.gov is the U.S. government's official web portal to all federal, state and local government web resources and services.